SCP
0 0 0 0 0 0 0 0 0 0 0 0 0 0 0 0 0 0 0 0 0 0 0 0 0 0 0 0 0 0 0 0 0 0 0 0 0 0 0 0 0 0 0 0
0 0 0 0 0 0 0 0 0 0 0 0 0 0 0 0 0 0 0 0 0 0 0 0 0 0 0 0 0 0 0 0 0 0 0 0 0 0 0 0 0 0 0 0
0 0 0 0 0 0 0 0 0 0 0 0 0 0 0 0 0 0 0 0 0 0 0 0 0 0 0 0 0 0 0 0 0 0 0 0 0 0 0 0 0 0 0 0
0 0 0 0 0 0 0 0 0 0 0 0 0 0 0 0 0 0 0 0 0 0 0 0 0 0 0 0 0 0 0 0 0 0 0 0 0 0 0 0 0 0 0 0
0 0 0 0 0 0 0 0 0 0 0 0 0 0 0 0 0 0 0 0 0 0 0 0 0 0 0 0 0 0 0 0 0 0 0 0 0 0 0 0 0 0 0 0
0 0 0 0 0 0 0 0 0 0 0 0 0 0 0 0 0 0 0 0 0 0 0 0 0 0 0 0 0 0 0 0 0 0 0 0 0 0 0 0 0 0 0 0
0 0 0 0 0 0 0 0 0 0 0 0 0 0 0 0 0 0 0 0 0 0 0 0 0 0 0 0 0 0 0 0 0 0 0 0 0 0 0 0 0 0 0 0
0 0 0 0 0 0 0 0 0 0 0 0 0 0 0 0 0 0 0 0 0 0 0 0 0 0 0 0 0 0 0 0 0 0 0 0 0 0 0 0 0 0 0 0
0 0 0 0 0 0 0 0 0 0 0 0 0 0 0 0 0 0 0 0 0 0 0 0 0 0 0 0 0 0 0 0 0 0 0 0 0 0 0 0 0 0 0 0
0 0 0 0 0 0 0 0 0 0 0 0 0 0 0 0 0 0 0 0 0 0 0 0 0 0 0 0 0 0 0 0 0 0 0 0 0 0 0 0 0 0 0 0
0 0 0 0 0 0 0 0 0 0 0 0 0 0 0 0 0 0 0 0 0 0 0 0 0 0 0 0 0 0 0 0 0 0 0 0 0 0 0 0 0 0 0 0
0 0 0 0 0 0 0 0 0 0 0 0 0 0 0 0 0 0 0 0 0 0 0 0 0 0 0 0 0 0 0 0 0 0 0 0 0 0 0 0 0 0 0 0
0 0 0 0 0 0 0 0 0 0 0 0 0 0 0 0 0 0 0 0 0 0 0 0 0 0 0 0 0 0 0 0 0 0 0 -0 -0 0 0 0 0 0 0 0
0 0 0 0 0 0 0 0 0 0 0 0 0 0 0 0 0 0 0 0 0 0 0 0 0 0 0 0 0 0 0 0 0 0 -0 -0 0 0 0 0 0 0 0 0
0 0 0 0 0 0 0 0 0 0 0 0 0 0 0 0 0 0 0 0 0 0 0 0 0 0 0 0 0 0 0 0 0 0 -0 -0 0 0 0 0 0 0 0 0
0 0 0 0 0 0 0 0 0 0 0 0 0 0 0 0 0 0 0 0 0 0 0 0 0 0 0 0 0 0 0 0 0 -0 -0 0 0 0 0 0 0 0 0 0
0 0 0 0 0 0 0 0 0 0 0 0 0 0 0 0 0 0 0 0 0 0 0 0 0 0 0 0 0 0 0 0 -0 -0 -0 0 0 0 0 0 0 0 0 0
0 0 0 0 0 0 0 0 0 0 0 0 0 0 0 0 0 0 0 0 0 0 0 0 0 0 0 0 0 0 0 0 -0 -0 -0 0 0 0 0 0 0 0 0 0
0 0 0 0 0 0 0 0 0 0 0 0 0 0 0 0 0 0 0 0 0 0 0 0 0 0 0 0 0 0 0 0 -0 -0 -0 -0 0 0 0 -0 0 0 0 0
0 0 0 0 0 0 0 0 0 0 0 0 0 0 0 0 0 0 0 0 0 0 0 0 0 0 0 0 0 0 0 -0 -0 -0 -0 -0 0 0 -0 -0 -0 0 0 0
0 0 0 0 0 0 0 0 0 0 0 0 0 0 0 0 0 0 0 0 0 0 0 0 0 0 0 0 0 0 0 -0 -0 -0 -0 -0 -0 -0 -0 -0 0 0 0 0
0 0 0 0 0 0 0 0 0 0 0 0 0 0 0 0 0 0 0 0 0 0 0 0 0 0 0 0 0 0 0 -0 -0 -0 -0 0 -0 -0 -0 -0 0 -0 0 0
0 0 0 0 0 0 0 0 0 0 0 0 0 0 0 0 0 0 0 0 0 0 0 0 0 0 0 0 0 0 -0 -0 -0 -0 -0 -0 -0 -0 -0 -0 0 -0 0 0
0 0 0 0 0 0 0 0 0 0 0 0 0 0 0 0 0 0 0 0 0 0 0 0 0 0 0 0 0 0 -0 -0 -0 -0 -0 -0 -0 -0 -0 -0 -0 0 0 0
0 0 0 0 0 0 0 0 0 0 0 0 0 0 0 0 0 0 0 0 0 0 0 0 0 0 0 0 0 0 -0 -0 -0 -0 -0 -0 -0 0 0 -0 0 0 0 0
0 0 0 0 0 0 0 0 0 0 0 0 0 0 0 0 0 0 0 0 0 0 0 0 0 0 0 -0 0 -0 -0 -0 -0 0 0 -0 -0 -0 0 0 0 0 0 0
0 0 0 0 0 0 0 0 0 0 0 0 0 0 0 0 0 0 0 0 0 0 0 0 0 0 0 -0 -0 -0 -0 -0 0 0 -0 -0 -0 0 -0 0 0 0 0 0
Wind_Speed_500mb
4 4 3 6 8 12 13 7 11 5 12 5 8 12 7 2 1 8 19 25 34 44 47 41 39 41 40 39 38 44 53 59 61 63 65 68 70 72 73 75 72 67 64 57
4 1 0 9 13 11 9 7 14 5 14 8 13 14 6 3 9 16 22 29 38 48 48 44 47 42 36 34 40 50 56 59 61 63 66 69 72 74 77 72 65 59 56 58
5 6 9 11 7 10 6 5 8 7 8 13 9 10 6 11 12 17 27 39 43 49 47 49 46 34 30 36 46 53 56 59 61 63 67 71 75 77 71 63 63 55 56 59
3 4 1 5 3 2 8 8 11 5 8 15 8 5 14 11 8 27 40 44 47 51 49 42 31 27 33 43 50 54 58 59 59 63 70 74 77 73 65 62 62 60 64 64
4 4 11 4 6 9 9 10 14 13 13 10 3 7 7 7 21 37 43 47 46 49 40 29 26 31 42 48 50 54 56 57 59 65 71 74 74 67 59 66 66 64 65 64
4 6 9 5 6 8 7 8 18 20 16 10 3 4 6 17 34 39 42 42 47 40 29 25 31 40 47 49 53 55 56 58 64 68 70 73 66 59 64 65 62 62 60 53
4 5 14 10 10 10 6 8 21 20 16 12 7 10 20 28 31 37 41 42 37 29 25 29 38 45 48 53 54 55 55 60 66 67 72 64 55 60 61 61 58 58 55 56
5 2 12 17 10 12 4 18 22 17 12 7 10 16 21 28 33 38 39 37 31 27 28 36 42 47 50 53 55 54 57 64 69 69 66 57 59 61 58 60 57 55 57 60
15 10 5 32 6 10 20 23 19 14 10 7 9 15 23 31 35 39 38 34 32 34 37 37 41 46 52 54 54 55 60 67 69 68 53 55 59 60 60 58 55 54 58 55
2 6 20 21 22 19 18 16 14 9 5 3 9 16 24 32 38 41 40 36 34 37 38 40 42 46 51 52 52 54 62 66 70 52 54 61 57 57 57 53 52 57 54 53
9 13 5 17 28 24 22 17 13 8 2 5 13 20 27 34 38 43 44 39 36 39 41 43 45 48 47 49 49 54 60 61 61 52 61 57 56 56 49 45 44 47 46 51
10 14 7 6 30 32 26 19 13 6 3 8 14 20 27 35 40 46 49 44 41 41 44 43 43 47 45 45 46 54 60 61 58 58 55 55 58 58 45 39 40 37 35 43
3 5 16 7 25 30 24 16 9 2 6 12 17 24 32 41 44 46 49 49 47 44 42 42 43 44 43 43 46 52 56 57 55 58 52 55 54 51 53 52 40 35 36 44
17 12 13 29 19 27 17 14 6 5 8 17 24 32 40 45 46 45 47 50 48 43 40 40 43 44 45 43 47 52 54 49 51 53 50 51 49 45 45 45 45 46 40 46
23 18 8 18 13 23 19 15 9 12 19 26 33 40 43 46 49 47 45 49 49 46 39 40 44 44 45 43 46 50 53 46 51 46 46 45 43 43 41 39 39 45 45 50
29 21 12 14 18 21 18 14 15 20 29 36 42 41 41 44 50 47 42 47 50 47 39 40 42 42 44 41 46 50 46 44 46 41 44 44 44 42 39 38 39 42 47 48
31 28 21 20 19 20 15 15 21 30 36 38 40 41 43 48 49 42 39 45 48 46 39 38 37 40 41 40 43 45 45 45 43 41 43 42 44 41 37 36 35 41 44 47
19 15 20 16 14 17 20 23 29 30 37 40 40 43 44 46 46 40 41 46 47 44 38 35 35 39 39 40 41 39 43 40 42 39 42 42 43 39 36 38 37 41 49 50
23 19 18 19 17 19 26 21 26 36 39 42 46 44 43 42 44 43 45 48 46 45 36 32 33 36 38 35 35 39 40 38 39 37 43 39 41 41 36 36 38 42 49 44
19 17 18 18 20 17 18 26 38 44 42 42 41 45 41 39 42 43 47 50 43 41 35 29 31 34 34 34 34 40 38 34 35 35 42 41 41 40 39 40 39 44 43 39
14 12 12 14 14 19 27 33 36 39 40 38 41 43 42 41 39 45 48 47 40 37 30 26 27 31 30 33 37 37 32 32 33 34 36 44 49 43 38 39 42 42 38 49
8 11 14 15 19 26 28 30 36 40 40 38 35 36 37 39 42 45 40 43 40 29 24 23 24 28 26 31 33 33 30 29 32 33 35 38 43 47 42 39 41 46 47 56
9 15 18 23 27 28 28 31 34 35 34 32 34 35 37 43 45 43 40 36 32 23 19 19 22 25 26 30 30 28 27 27 30 32 34 36 36 42 45 41 41 48 49 53
18 22 26 28 26 26 30 29 30 29 30 35 45 49 48 48 45 32 26 28 27 26 21 16 21 23 25 28 27 26 25 24 28 31 31 33 35 36 43 47 47 42 45 49
22 20 17 18 25 25 25 26 25 27 35 41 50 36 33 29 37 32 27 22 21 22 16 15 19 20 23 24 24 23 24 24 28 32 29 31 35 34 38 45 48 48 50 45
14 14 19 21 19 20 24 26 27 33 39 41 45 42 36 32 32 27 21 13 19 20 11 13 16 16 21 22 22 22 23 23 27 31 30 30 33 36 37 39 41 42 49 44
17 18 16 14 18 22 23 25 32 36 37 39 42 42 34 30 27 23 19 15 16 15 9 10 11 15 18 20 21 22 23 23 25 30 33 32 35 37 39 40 39 39 44 40
Wind_Direction_500mb
226 223 216 235 204 180 198 186 204 237 210 193 177 171 166 168 315 330 334 332 330 332 330 323 315 308 299 292 296 307 314 314 315 316 316 316 318 318 317 317 318 317 316 315
177 116 300 260 232 219 222 215 254 261 280 213 166 176 206 287 314 329 320 311 312 319 323 320 317 308 298 298 307 312 313 315 317 318 319 320 320 321 321 320 320 319 321 319
262 342 318 287 234 192 189 175 162 199 224 174 184 207 251 320 314 314 321 320 321 322 320 317 316 306 303 307 312 314 316 319 321 321 320 322 324 325 323 322 323 320 320 320
238 357 222 243 167 163 210 224 189 172 185 183 180 248 310 297 284 318 324 324 323 321 319 317 313 308 311 315 317 318 320 320 322 323 324 326 327 326 326 329 327 323 322 322
148 200 294 236 199 178 176 272 191 183 168 158 143 311 286 212 318 325 327 324 320 320 319 313 309 313 317 317 317 319 321 323 325 326 325 326 327 328 331 332 329 323 321 322
132 143 219 260 209 173 114 279 181 167 160 154 90 336 257 305 316 322 324 323 322 321 317 316 317 320 319 320 323 324 326 326 326 327 326 325 325 329 334 328 322 323 324 324
145 222 282 223 171 150 106 256 154 157 152 162 201 232 295 310 318 325 330 333 331 324 318 317 319 320 322 323 324 325 325 324 326 328 326 326 330 335 327 323 323 324 325 329
104 148 278 162 125 179 166 135 154 156 172 222 277 304 318 324 328 333 333 334 333 326 319 319 321 321 323 324 324 325 324 327 328 328 326 334 338 332 331 333 329 327 327 330
187 214 256 193 179 207 168 172 173 181 204 256 311 327 330 331 337 337 334 330 327 323 319 319 318 321 323 326 325 323 326 329 329 328 333 332 333 335 334 334 330 329 326 327
87 218 232 227 230 206 186 180 171 189 197 297 322 328 330 337 340 337 334 327 320 320 317 317 318 323 324 324 321 323 327 330 331 332 332 335 338 339 337 334 334 333 329 328
262 268 262 233 214 195 180 178 181 179 201 310 331 339 339 339 339 338 334 326 318 319 315 316 318 324 326 322 319 325 329 332 335 333 330 338 342 338 337 338 336 331 330 333
225 205 179 203 201 192 190 187 178 168 320 333 335 338 338 339 338 339 337 330 319 313 310 314 319 326 327 321 322 328 331 334 338 332 339 344 338 339 350 346 342 338 338 341
215 208 217 265 181 186 190 180 158 357 323 315 319 323 325 324 328 330 335 329 320 310 311 315 319 326 326 324 325 330 331 332 337 337 346 338 341 346 344 351 353 353 352 351
222 176 156 169 185 187 183 170 193 258 310 319 318 317 316 315 314 318 327 328 320 313 312 311 315 323 325 325 327 329 331 334 340 343 341 341 346 348 349 347 350 352 352 354
190 182 164 191 176 183 190 198 244 288 310 313 311 310 317 313 313 317 321 324 319 317 312 307 314 321 323 325 328 331 333 342 341 341 340 347 351 352 352 352 353 352 352 353
184 188 185 177 185 192 206 232 276 300 306 310 314 314 313 314 314 315 317 322 321 320 312 305 314 320 323 325 329 331 336 344 343 342 347 352 355 353 352 357 355 356 357 358
180 201 196 195 204 213 225 262 286 304 309 315 314 313 314 315 315 315 317 322 324 321 315 311 315 319 322 326 330 330 339 343 348 349 349 353 354 350 350 354 352 353 356 355
212 218 214 213 227 232 255 286 301 306 310 309 308 312 314 317 320 318 317 321 326 322 316 311 314 319 322 327 329 335 340 345 350 352 349 353 351 352 352 350 348 348 347 347
211 211 213 219 247 259 291 295 303 305 307 311 313 313 311 314 318 315 314 316 324 320 316 311 315 319 322 327 333 338 342 347 352 353 353 349 353 358 358 358 354 350 350 352
181 204 223 243 259 273 291 306 310 309 311 308 307 312 311 310 315 318 317 316 321 316 310 308 316 319 325 330 339 340 343 350 355 357 359 356 356 357 358 359 356 355 353 356
173 195 217 237 257 288 304 312 311 309 309 306 306 308 311 310 314 319 322 321 326 313 308 308 315 321 327 335 338 338 346 353 357 357 356 3 4 2 1 2 5 2 359 353
202 238 253 276 291 296 305 310 310 309 309 309 308 307 308 306 308 314 320 323 322 309 303 306 313 323 331 333 336 341 350 356 360 356 356 360 1 4 5 6 6 360 354 357
257 270 285 289 293 299 306 310 309 308 309 311 311 310 306 305 309 315 318 326 325 315 305 309 313 325 332 335 341 345 349 354 355 358 358 2 5 5 8 7 6 2 3 1
278 286 284 287 291 299 304 307 306 305 308 314 313 308 306 304 300 309 309 322 327 319 308 306 313 327 334 338 344 348 352 354 352 359 360 5 8 7 10 11 10 6 3 6
288 288 283 289 299 303 303 306 306 309 312 322 334 338 337 328 317 305 296 298 306 308 304 304 315 329 334 340 349 353 356 356 353 2 8 10 11 9 9 7 8 9 9 11
272 273 293 302 306 307 305 304 304 313 319 327 331 336 338 333 329 319 302 277 286 287 281 304 318 334 337 345 355 359 1 359 358 4 8 8 10 9 9 5 8 11 8 15
272 286 298 303 308 308 307 302 307 316 322 320 323 331 332 330 326 314 300 266 284 278 269 316 328 342 343 353 2 5 7 6 2 5 12 10 11 8 9 12 13 15 14 22
Wind_Speed_850mb
4 4 3 6 8 12 13 7 11 5 12 5 8 12 7 2 1 8 19 25 34 44 47 41 39 41 40 39 38 44 53 59 61 63 65 68 70 72 73 75 72 67 64 57
4 1 0 9 13 11 9 7 14 5 14 8 13 14 6 3 9 16 22 29 38 48 48 44 47 42 36 34 40 50 56 59 61 63 66 69 72 74 77 72 65 59 56 58
5 6 9 11 7 10 6 5 8 7 8 13 9 10 6 11 12 17 27 39 43 49 47 49 46 34 30 36 46 53 56 59 61 63 67 71 75 77 71 63 63 55 56 59
3 4 1 5 3 2 8 8 11 5 8 15 8 5 14 11 8 27 40 44 47 51 49 42 31 27 33 43 50 54 58 59 59 63 70 74 77 73 65 62 62 60 64 64
4 4 11 4 6 9 9 10 14 13 13 10 3 7 7 7 21 37 43 47 46 49 40 29 26 31 42 48 50 54 56 57 59 65 71 74 74 67 59 66 66 64 65 64
4 6 9 5 6 8 7 8 18 20 16 10 3 4 6 17 34 39 42 42 47 40 29 25 31 40 47 49 53 55 56 58 64 68 70 73 66 59 64 65 62 62 60 53
4 5 14 10 10 10 6 8 21 20 16 12 7 10 20 28 31 37 41 42 37 29 25 29 38 45 48 53 54 55 55 60 66 67 72 64 55 60 61 61 58 58 55 56
5 2 12 17 10 12 4 18 22 17 12 7 10 16 21 28 33 38 39 37 31 27 28 36 42 47 50 53 55 54 57 64 69 69 66 57 59 61 58 60 57 55 57 60
15 10 5 32 6 10 20 23 19 14 10 7 9 15 23 31 35 39 38 34 32 34 37 37 41 46 52 54 54 55 60 67 69 68 53 55 59 60 60 58 55 54 58 55
2 6 20 21 22 19 18 16 14 9 5 3 9 16 24 32 38 41 40 36 34 37 38 40 42 46 51 52 52 54 62 66 70 52 54 61 57 57 57 53 52 57 54 53
9 13 5 17 28 24 22 17 13 8 2 5 13 20 27 34 38 43 44 39 36 39 41 43 45 48 47 49 49 54 60 61 61 52 61 57 56 56 49 45 44 47 46 51
10 14 7 6 30 32 26 19 13 6 3 8 14 20 27 35 40 46 49 44 41 41 44 43 43 47 45 45 46 54 60 61 58 58 55 55 58 58 45 39 40 37 35 43
3 5 16 7 25 30 24 16 9 2 6 12 17 24 32 41 44 46 49 49 47 44 42 42 43 44 43 43 46 52 56 57 55 58 52 55 54 51 53 52 40 35 36 44
17 12 13 29 19 27 17 14 6 5 8 17 24 32 40 45 46 45 47 50 48 43 40 40 43 44 45 43 47 52 54 49 51 53 50 51 49 45 45 45 45 46 40 46
23 18 8 18 13 23 19 15 9 12 19 26 33 40 43 46 49 47 45 49 49 46 39 40 44 44 45 43 46 50 53 46 51 46 46 45 43 43 41 39 39 45 45 50
29 21 12 14 18 21 18 14 15 20 29 36 42 41 41 44 50 47 42 47 50 47 39 40 42 42 44 41 46 50 46 44 46 41 44 44 44 42 39 38 39 42 47 48
31 28 21 20 19 20 15 15 21 30 36 38 40 41 43 48 49 42 39 45 48 46 39 38 37 40 41 40 43 45 45 45 43 41 43 42 44 41 37 36 35 41 44 47
19 15 20 16 14 17 20 23 29 30 37 40 40 43 44 46 46 40 41 46 47 44 38 35 35 39 39 40 41 39 43 40 42 39 42 42 43 39 36 38 37 41 49 50
23 19 18 19 17 19 26 21 26 36 39 42 46 44 43 42 44 43 45 48 46 45 36 32 33 36 38 35 35 39 40 38 39 37 43 39 41 41 36 36 38 42 49 44
19 17 18 18 20 17 18 26 38 44 42 42 41 45 41 39 42 43 47 50 43 41 35 29 31 34 34 34 34 40 38 34 35 35 42 41 41 40 39 40 39 44 43 39
14 12 12 14 14 19 27 33 36 39 40 38 41 43 42 41 39 45 48 47 40 37 30 26 27 31 30 33 37 37 32 32 33 34 36 44 49 43 38 39 42 42 38 49
8 11 14 15 19 26 28 30 36 40 40 38 35 36 37 39 42 45 40 43 40 29 24 23 24 28 26 31 33 33 30 29 32 33 35 38 43 47 42 39 41 46 47 56
9 15 18 23 27 28 28 31 34 35 34 32 34 35 37 43 45 43 40 36 32 23 19 19 22 25 26 30 30 28 27 27 30 32 34 36 36 42 45 41 41 48 49 53
18 22 26 28 26 26 30 29 30 29 30 35 45 49 48 48 45 32 26 28 27 26 21 16 21 23 25 28 27 26 25 24 28 31 31 33 35 36 43 47 47 42 45 49
22 20 17 18 25 25 25 26 25 27 35 41 50 36 33 29 37 32 27 22 21 22 16 15 19 20 23 24 24 23 24 24 28 32 29 31 35 34 38 45 48 48 50 45
14 14 19 21 19 20 24 26 27 33 39 41 45 42 36 32 32 27 21 13 19 20 11 13 16 16 21 22 22 22 23 23 27 31 30 30 33 36 37 39 41 42 49 44
17 18 16 14 18 22 23 25 32 36 37 39 42 42 34 30 27 23 19 15 16 15 9 10 11 15 18 20 21 22 23 23 25 30 33 32 35 37 39 40 39 39 44 40
Wind_Direction_850mb
226 223 216 235 204 180 198 186 204 237 210 193 177 171 166 168 315 330 334 332 330 332 330 323 315 308 299 292 296 307 314 314 315 316 316 316 318 318 317 317 318 317 316 315
177 116 300 260 232 219 222 215 254 261 280 213 166 176 206 287 314 329 320 311 312 319 323 320 317 308 298 298 307 312 313 315 317 318 319 320 320 321 321 320 320 319 321 319
262 342 318 287 234 192 189 175 162 199 224 174 184 207 251 320 314 314 321 320 321 322 320 317 316 306 303 307 312 314 316 319 321 321 320 322 324 325 323 322 323 320 320 320
238 357 222 243 167 163 210 224 189 172 185 183 180 248 310 297 284 318 324 324 323 321 319 317 313 308 311 315 317 318 320 320 322 323 324 326 327 326 326 329 327 323 322 322
148 200 294 236 199 178 176 272 191 183 168 158 143 311 286 212 318 325 327 324 320 320 319 313 309 313 317 317 317 319 321 323 325 326 325 326 327 328 331 332 329 323 321 322
132 143 219 260 209 173 114 279 181 167 160 154 90 336 257 305 316 322 324 323 322 321 317 316 317 320 319 320 323 324 326 326 326 327 326 325 325 329 334 328 322 323 324 324
145 222 282 223 171 150 106 256 154 157 152 162 201 232 295 310 318 325 330 333 331 324 318 317 319 320 322 323 324 325 325 324 326 328 326 326 330 335 327 323 323 324 325 329
104 148 278 162 125 179 166 135 154 156 172 222 277 304 318 324 328 333 333 334 333 326 319 319 321 321 323 324 324 325 324 327 328 328 326 334 338 332 331 333 329 327 327 330
187 214 256 193 179 207 168 172 173 181 204 256 311 327 330 331 337 337 334 330 327 323 319 319 318 321 323 326 325 323 326 329 329 328 333 332 333 335 334 334 330 329 326 327
87 218 232 227 230 206 186 180 171 189 197 297 322 328 330 337 340 337 334 327 320 320 317 317 318 323 324 324 321 323 327 330 331 332 332 335 338 339 337 334 334 333 329 328
262 268 262 233 214 195 180 178 181 179 201 310 331 339 339 339 339 338 334 326 318 319 315 316 318 324 326 322 319 325 329 332 335 333 330 338 342 338 337 338 336 331 330 333
225 205 179 203 201 192 190 187 178 168 320 333 335 338 338 339 338 339 337 330 319 313 310 314 319 326 327 321 322 328 331 334 338 332 339 344 338 339 350 346 342 338 338 341
215 208 217 265 181 186 190 180 158 357 323 315 319 323 325 324 328 330 335 329 320 310 311 315 319 326 326 324 325 330 331 332 337 337 346 338 341 346 344 351 353 353 352 351
222 176 156 169 185 187 183 170 193 258 310 319 318 317 316 315 314 318 327 328 320 313 312 311 315 323 325 325 327 329 331 334 340 343 341 341 346 348 349 347 350 352 352 354
190 182 164 191 176 183 190 198 244 288 310 313 311 310 317 313 313 317 321 324 319 317 312 307 314 321 323 325 328 331 333 342 341 341 340 347 351 352 352 352 353 352 352 353
184 188 185 177 185 192 206 232 276 300 306 310 314 314 313 314 314 315 317 322 321 320 312 305 314 320 323 325 329 331 336 344 343 342 347 352 355 353 352 357 355 356 357 358
180 201 196 195 204 213 225 262 286 304 309 315 314 313 314 315 315 315 317 322 324 321 315 311 315 319 322 326 330 330 339 343 348 349 349 353 354 350 350 354 352 353 356 355
212 218 214 213 227 232 255 286 301 306 310 309 308 312 314 317 320 318 317 321 326 322 316 311 314 319 322 327 329 335 340 345 350 352 349 353 351 352 352 350 348 348 347 347
211 211 213 219 247 259 291 295 303 305 307 311 313 313 311 314 318 315 314 316 324 320 316 311 315 319 322 327 333 338 342 347 352 353 353 349 353 358 358 358 354 350 350 352
181 204 223 243 259 273 291 306 310 309 311 308 307 312 311 310 315 318 317 316 321 316 310 308 316 319 325 330 339 340 343 350 355 357 359 356 356 357 358 359 356 355 353 356
173 195 217 237 257 288 304 312 311 309 309 306 306 308 311 310 314 319 322 321 326 313 308 308 315 321 327 335 338 338 346 353 357 357 356 3 4 2 1 2 5 2 359 353
202 238 253 276 291 296 305 310 310 309 309 309 308 307 308 306 308 314 320 323 322 309 303 306 313 323 331 333 336 341 350 356 360 356 356 360 1 4 5 6 6 360 354 357
257 270 285 289 293 299 306 310 309 308 309 311 311 310 306 305 309 315 318 326 325 315 305 309 313 325 332 335 341 345 349 354 355 358 358 2 5 5 8 7 6 2 3 1
278 286 284 287 291 299 304 307 306 305 308 314 313 308 306 304 300 309 309 322 327 319 308 306 313 327 334 338 344 348 352 354 352 359 360 5 8 7 10 11 10 6 3 6
288 288 283 289 299 303 303 306 306 309 312 322 334 338 337 328 317 305 296 298 306 308 304 304 315 329 334 340 349 353 356 356 353 2 8 10 11 9 9 7 8 9 9 11
272 273 293 302 306 307 305 304 304 313 319 327 331 336 338 333 329 319 302 277 286 287 281 304 318 334 337 345 355 359 1 359 358 4 8 8 10 9 9 5 8 11 8 15
272 286 298 303 308 308 307 302 307 316 322 320 323 331 332 330 326 314 300 266 284 278 269 316 328 342 343 353 2 5 7 6 2 5 12 10 11 8 9 12 13 15 14 22